This is the latest recevied weather packets stored in our database for station/object KC1IUC-15. If no packets are shown the sender has not sent any weather packets the latest 10 day(s).
| Time | Temp. | Humidity | Pressure | Rain* | Wind** | Luminosity | Snow |
|---|---|---|---|---|---|---|---|
| 1777683604 | 13.33° C | 55% | 1011.3 hPa | 0 mm | - | 0 W/m² | - |
| 1777683304 | 13.33° C | 55% | 1011 hPa | 0 mm | - | 0 W/m² | - |
| 1777683003 | 13.33° C | 54% | 1011.3 hPa | 0 mm | - | 0 W/m² | - |
| 1777682704 | 13.33° C | 53% | 1011 hPa | 0 mm | - | 0 W/m² | - |
| 1777682404 | 13.33° C | 52% | 1011 hPa | 0 mm | - | 0 W/m² | - |
| 1777682104 | 13.33° C | 51% | 1011 hPa | 0 mm | - | 0 W/m² | - |
| 1777681804 | 13.33° C | 50% | 1010.6 hPa | 0 mm | - | 0 W/m² | - |
| 1777681504 | 13.33° C | 48% | 1010.6 hPa | 0 mm | - | 0 W/m² | - |
| 1777681204 | 13.89° C | 46% | 1010.6 hPa | 0 mm | - | 0 W/m² | - |
| 1777680904 | 13.89° C | 44% | 1010.6 hPa | 0 mm | - | 0 W/m² | - |
| 1777680604 | 13.89° C | 44% | 1010.6 hPa | 0 mm | - | 0 W/m² | - |
| 1777680303 | 14.44° C | 41% | 1010.6 hPa | 0 mm | - | 0 W/m² | - |
| 1777680004 | 14.44° C | 41% | 1010.3 hPa | 0 mm | - | 0 W/m² | - |
| 1777679704 | 14.44° C | 41% | 1009.9 hPa | 0 mm | - | 1 W/m² | - |
| 1777679403 | 14.44° C | 42% | 1009.9 hPa | 0 mm | - | 1 W/m² | - |
| 1777679104 | 14.44° C | 40% | 1009.9 hPa | 0 mm | - | 3 W/m² | - |
| 1777678803 | 15° C | 40% | 1009.9 hPa | 0 mm | - | 5 W/m² | - |
| 1777678503 | 15° C | 40% | 1009.9 hPa | 0 mm | - | 7 W/m² | - |
| 1777678204 | 15.56° C | 39% | 1009.6 hPa | 0 mm | - | 10 W/m² | - |
| 1777677903 | 15.56° C | 39% | 1009.6 hPa | 0 mm | - | 13 W/m² | - |
| 1777677604 | 15.56° C | 37% | 1009.6 hPa | 0 mm | - | 19 W/m² | - |
| 1777677303 | 15.56° C | 37% | 1009.6 hPa | 0 mm | - | 19 W/m² | - |
| 1777677004 | 16.11° C | 36% | 1009.3 hPa | 0 mm | - | 24 W/m² | - |
| 1777676704 | 16.11° C | 38% | 1009.6 hPa | 0 mm | - | 30 W/m² | - |
| 1777676404 | 16.11° C | 37% | 1009.3 hPa | 0 mm | - | 33 W/m² | - |
* Rain latest hour (hover to see other rain measurements)
** Current wind speed in m/s (hover to see current wind gust speed)